Weather History for KSAC - July, 2013

Change the Weather History Date:

Friday, July 19, 2013

  Actual Average Record
Temperature  
Mean Temperature 79 °F -  
Max Temperature 99 °F 93 °F 111 °F (1960)
Min Temperature 58 °F 59 °F 51 °F (1983)
Degree Days  
Heating Degree Days 0    
Cooling Degree Days 14    
Growing Degree Days 28 (Base 50)    
Moisture  
Dew Point 52 °F    
Average Humidity 51    
Maximum Humidity 80    
Minimum Humidity 21    
Precipitation  
Precipitation 0.00 in 0.00 in 0.00 in (2015)
Month to date precipitation 0.00 0.00  
Year to date precipitation 3.91 11.90  
Since 1 July precipitation 0.00  
Sea Level Pressure  
Sea Level Pressure 29.83 in    
Wind  
Wind Speed 4 mph (SSW)    
Max Wind Speed 13 mph    
Max Gust Speed 17 mph    
Visibility 10 miles    
Events      
T = Trace of Precipitation, MM = Missing Value Source: NWS Daily Summary

Daily Weather History Graph

Daily Weather History Graph

Search for Another Location

Airport or City:

Trip Planner

Search our weather history database for the weather conditions in past years. The results will help you decide how hot, cold, wet, or windy it might be!

Date:

Astronomy

Jul. 19, 2013 Rise Set
Actual Time 5:57 AM PDT 8:26 PM PDT
Civil Twilight 5:26 AM PDT 8:57 PM PDT
Nautical Twilight 4:48 AM PDT 9:35 PM PDT
Astronomical Twilight 4:06 AM PDT 10:17 PM PDT
Moon 5:35 PM PDT (7/19) 2:43 AM PDT (7/19)
Length of Visible Light 15h 30m
Length of Day
14h 29m
Waxing Gibbous, 87% of the Moon is Illuminated
Jul 19
Waxing Gibbous
Jul 22
Full
Jul 29
Last Quarter
Aug 6
New
Aug 14
First Quarter

Hourly Weather History & Observations

Time (PDT) Temp. Heat Index Dew Point Humidity Pressure Visibility Wind Dir Wind Speed Gust Speed Precip Events Conditions
12:53 AM 64.0 °F - 50.0 °F 60% 29.88 in 10.0 mi SSE 3.5 mph - N/A   Clear
1:53 AM 62.1 °F - 51.1 °F 67% 29.88 in 10.0 mi South 3.5 mph - N/A   Clear
2:53 AM 61.0 °F - 51.1 °F 70% 29.87 in 10.0 mi Calm Calm - N/A   Clear
3:53 AM 60.1 °F - 51.1 °F 72% 29.87 in 10.0 mi SSW 4.6 mph - N/A   Clear
4:53 AM 59.0 °F - 51.1 °F 75% 29.87 in 10.0 mi SSW 4.6 mph - N/A   Clear
5:53 AM 57.9 °F - 51.1 °F 78% 29.88 in 10.0 mi SSW 3.5 mph - N/A   Clear
6:53 AM 57.9 °F - 52.0 °F 81% 29.89 in 9.0 mi South 3.5 mph - N/A   Clear
7:53 AM 61.0 °F - 53.1 °F 75% 29.90 in 10.0 mi Calm Calm - N/A   Clear
8:53 AM 66.0 °F - 54.0 °F 65% 29.90 in 10.0 mi South 3.5 mph - N/A   Clear
9:53 AM 73.0 °F - 55.0 °F 53% 29.89 in 10.0 mi South 4.6 mph - N/A   Clear
10:53 AM 78.1 °F - 55.0 °F 45% 29.89 in 10.0 mi Variable 3.5 mph - N/A   Clear
11:53 AM 84.9 °F 83.6 °F 55.0 °F 36% 29.88 in 10.0 mi Variable 4.6 mph - N/A   Clear
12:53 PM 89.1 °F - 52.0 °F 28% 29.86 in 10.0 mi West 4.6 mph - N/A   Clear
1:53 PM 93.9 °F 92.0 °F 55.0 °F 27% 29.83 in 10.0 mi Variable 5.8 mph - N/A   Clear
2:53 PM 95.0 °F - 52.0 °F 23% 29.81 in 10.0 mi Calm Calm - N/A   Clear
3:53 PM 98.1 °F - 51.1 °F 20% 29.78 in 10.0 mi SSW 6.9 mph - N/A   Clear
4:53 PM 97.0 °F - 50.0 °F 20% 29.76 in 10.0 mi SW 10.4 mph - N/A   Clear
5:53 PM 96.1 °F - 46.9 °F 19% 29.74 in 10.0 mi SW 11.5 mph - N/A   Clear
6:53 PM 93.0 °F 90.6 °F 53.1 °F 26% 29.73 in 10.0 mi SW 8.1 mph 16.1 mph N/A   Clear
7:53 PM 86.0 °F 84.5 °F 55.0 °F 35% 29.74 in 10.0 mi SSW 8.1 mph - N/A   Clear
8:53 PM 78.1 °F - 54.0 °F 43% 29.75 in 10.0 mi SSW 8.1 mph - N/A   Clear
9:53 PM 73.0 °F - 54.0 °F 51% 29.77 in 10.0 mi SW 8.1 mph - N/A   Clear
10:53 PM 70.0 °F - 52.0 °F 53% 29.77 in 10.0 mi SSW 5.8 mph - N/A   Clear
11:53 PM 66.9 °F - 51.1 °F 57% 29.78 in 10.0 mi South 3.5 mph - N/A   Clear